RH
19 17 16 16 15 15 15 15 17 33 61 55 54 51 52 56 53 54 47 50 44 39 24 20 22 23 25 27 26 25 23 22 21 18 15 15 16 17 17 17 17 15 14 14 14 14 14 14 16
19 16 16 17 16 16 15 25 27 28 45 56 58 62 63 62 54 49 48 49 40 32 21 22 21 22 23 23 22 22 23 22 21 18 16 14 15 16 17 17 16 15 15 15 15 15 14 14 15
24 18 18 17 16 21 26 44 46 45 49 46 53 61 54 50 46 44 44 48 37 36 22 23 20 20 22 23 24 26 27 24 21 18 16 14 14 16 17 16 16 15 15 15 14 14 14 14 15
28 22 24 21 21 20 33 47 59 53 51 48 50 50 49 45 39 42 48 50 41 34 24 23 21 21 23 25 26 27 27 24 20 18 17 14 13 14 15 16 16 15 15 15 14 14 13 13 12
31 32 31 30 30 23 23 26 57 50 48 51 47 51 50 47 39 43 47 52 46 31 25 25 24 22 23 27 28 27 27 23 21 17 16 15 14 13 14 14 14 14 14 14 13 13 13 13 13
34 31 36 35 32 26 26 32 38 51 52 49 49 50 55 54 45 46 50 50 46 33 26 27 28 27 26 29 29 28 27 24 21 20 18 17 16 15 15 15 15 15 15 15 15 16 17 19 22
35 31 29 27 32 30 30 33 46 50 52 53 48 54 58 58 54 49 54 51 46 39 34 30 29 30 31 29 29 28 27 24 21 20 19 20 20 19 19 19 19 19 20 21 23 26 29 29 30
32 33 31 30 29 31 31 37 46 53 57 54 51 54 57 59 56 54 54 56 45 48 43 41 36 32 33 32 30 30 27 24 22 22 23 23 21 24 21 21 24 26 31 35 37 38 42 40 44
32 34 33 30 30 27 29 41 72 64 61 51 54 53 53 54 54 60 55 57 54 50 50 45 44 41 35 33 33 32 28 25 24 23 22 26 33 39 35 35 40 42 46 52 50 49 45 46 50
32 33 30 27 27 26 30 41 57 62 65 67 60 57 54 52 51 54 52 54 56 50 46 45 46 46 42 39 36 33 31 28 24 23 27 36 39 44 46 57 57 51 45 43 41 43 43 44 48
20 25 25 25 25 25 29 37 70 76 74 75 67 62 63 58 57 56 61 60 63 57 52 51 50 47 45 41 38 34 33 29 27 25 29 38 44 51 61 60 55 45 43 42 41 41 45 48 44
13 15 16 17 21 24 27 36 44 69 77 71 78 98 88 74 64 57 65 65 64 68 65 61 58 54 48 42 44 43 38 31 27 29 33 38 48 55 56 57 52 46 45 40 40 40 42 45 42
11 13 14 13 14 22 30 42 47 64 76 71 67 79 91 86 72 69 69 70 66 68 67 66 65 63 57 51 47 49 47 39 36 37 39 43 52 57 57 52 49 49 44 39 42 42 40 38 40
9 9 11 11 12 20 37 47 48 66 75 72 75 70 64 92 79 70 69 70 67 68 74 73 72 71 64 56 49 46 43 43 42 40 43 46 54 55 48 41 37 36 33 34 37 41 41 40 37
10 10 10 10 10 19 38 51 53 68 76 82 74 63 71 71 74 68 62 58 62 67 72 74 72 66 61 53 46 44 45 48 50 45 41 37 39 40 38 33 28 27 27 29 32 33 37 36 36
13 13 14 11 13 19 33 56 57 63 65 69 64 64 62 65 74 70 66 64 64 68 70 72 66 59 53 51 50 49 51 53 45 35 29 28 31 36 37 32 29 27 28 30 31 33 33 35 32
15 17 16 14 15 19 35 56 63 59 58 60 58 60 72 73 72 72 67 64 64 63 66 59 56 51 53 57 59 60 58 46 42 33 30 30 28 31 35 34 31 28 29 33 36 36 39 37 32
16 17 16 16 16 22 43 53 56 57 60 59 61 60 71 75 72 67 66 62 57 59 62 56 52 50 54 59 65 62 51 44 40 36 37 36 33 32 32 35 35 29 28 33 37 38 37 38 37
15 16 16 16 18 25 40 46 54 59 61 66 64 67 76 75 70 64 63 61 58 59 57 58 50 55 57 65 64 60 56 54 49 47 44 42 40 39 37 36 34 38 37 39 43 45 43 43 44
17 18 18 18 22 31 49 50 53 56 51 49 55 70 66 61 62 57 54 56 56 62 59 60 57 57 62 61 63 65 64 61 57 57 58 57 54 53 52 47 43 41 42 41 41 43 41 43 50
17 20 19 18 24 32 50 64 62 65 63 63 68 64 58 49 48 50 47 49 57 57 59 61 56 55 55 58 61 63 67 67 63 67 65 64 62 60 59 59 57 48 46 41 38 39 43 53 56
17 18 19 22 27 31 39 60 67 68 74 69 67 64 61 53 48 44 39 46 54 57 56 57 55 55 58 59 59 55 55 64 68 69 65 61 66 66 66 62 57 54 52 48 48 47 44 36 35
16 19 21 24 31 35 42 48 55 66 72 73 60 61 59 51 44 49 40 43 53 57 57 55 54 58 59 57 54 52 54 59 64 55 46 45 54 54 50 44 45 46 44 47 45 45 35 24 17
19 23 25 28 39 56 34 41 56 64 56 61 56 54 55 60 61 62 55 50 53 56 59 55 53 59 58 53 51 49 49 46 45 41 37 37 38 37 35 34 32 27 26 29 27 19 16 13 13
20 25 39 41 55 40 31 42 39 47 47 45 50 48 58 55 61 61 53 45 50 53 53 49 49 54 54 51 47 44 43 44 44 39 35 34 32 31 26 25 26 25 24 18 14 13 9 7 7
27 22 39 39 47 32 37 48 39 42 43 43 45 44 51 61 63 61 51 43 45 50 47 45 45 50 51 48 45 44 43 43 43 38 37 34 31 28 24 21 19 17 15 13 12 10 9 7 7
26 33 26 38 41 41 35 34 41 47 50 45 47 49 52 54 57 55 50 47 45 45 45 45 49 48 48 49 48 46 40 40 40 38 39 35 30 26 26 22 19 16 16 13 11 8 8 8 7
32 31 37 47 56 48 46 35 34 42 49 48 48 46 45 47 48 46 49 47 46 47 43 45 47 47 49 49 47 40 37 38 37 39 39 36 31 27 26 23 20 16 14 12 11 10 7 8 8
32 34 35 39 48 51 55 44 34 31 35 43 46 37 38 44 44 44 49 52 47 44 42 44 44 44 46 44 38 38 38 38 37 37 38 36 33 29 27 23 19 16 12 14 9 8 8 8 9
29 34 35 51 43 50 58 49 40 34 31 31 35 34 37 41 47 47 48 53 54 48 44 42 41 37 40 42 40 40 39 39 38 39 39 37 35 29 25 23 20 14 14 13 8 8 8 9 10